CES5815 ZPPP-ZSPD

Flight info

Callsign CES5815
Flight time N/A
Altitude 35100
Route NODIB5Q NODIB W137 LPS A581 WHA R343 EKIMU
Aircraft A321/M-SDE3FGHIRWY/LB1

Departure

Time 2026-04-28 10:34
Airport Kunming Changshui International Airport (ZPPP)

Arrival

Time N/A
Airport Shanghai Pudong International Airport (ZSPD)
Time Latitude Longitude Altitude Speed Heading
2026-04-28 09:25 25.10544 102.92847 6921 ft 0 kts 65°
2026-04-28 09:30 25.10544 102.92846 6921 ft 0 kts 65°
2026-04-28 09:59 25.10544 102.92845 6921 ft 0 kts 65°
2026-04-28 10:18 25.10538 102.92832 6917 ft 4 kts 60°
2026-04-28 10:18 25.10523 102.92808 6918 ft 4 kts 43°
2026-04-28 10:19 25.10502 102.92793 6931 ft 4 kts
2026-04-28 10:19 25.10487 102.92793 6934 ft 1 kts 336°
2026-04-28 10:24 25.10488 102.92793 6921 ft 1 kts 336°
2026-04-28 10:24 25.10519 102.92778 6921 ft 8 kts 335°
2026-04-28 10:24 25.10578 102.92746 6928 ft 11 kts 334°
2026-04-28 10:24 25.10651 102.92706 6927 ft 12 kts 334°
2026-04-28 10:25 25.10724 102.92711 6925 ft 12 kts 33°
2026-04-28 10:25 25.10794 102.92771 6926 ft 14 kts 38°
2026-04-28 10:25 25.10873 102.92840 6921 ft 16 kts 38°
2026-04-28 10:25 25.10961 102.92918 6932 ft 17 kts 38°
2026-04-28 10:26 25.11055 102.93000 6927 ft 18 kts 39°
2026-04-28 10:26 25.11155 102.93087 6930 ft 19 kts 38°
2026-04-28 10:26 25.11260 102.93178 6921 ft 20 kts 38°
2026-04-28 10:26 25.11369 102.93272 6927 ft 20 kts 38°
2026-04-28 10:27 25.11479 102.93368 6921 ft 21 kts 38°
2026-04-28 10:27 25.11578 102.93454 6921 ft 10 kts 38°
2026-04-28 10:27 25.11637 102.93436 6933 ft 11 kts 310°
2026-04-28 10:27 25.11692 102.93370 6921 ft 12 kts 336°
2026-04-28 10:28 25.11770 102.93386 6928 ft 10 kts
2026-04-28 10:28 25.11838 102.93354 6927 ft 11 kts
2026-04-28 10:28 25.11906 102.93402 6931 ft 13 kts 38°
2026-04-28 10:29 25.12088 102.93560 6925 ft 19 kts 38°
2026-04-28 10:29 25.12195 102.93652 6931 ft 20 kts 38°
2026-04-28 10:29 25.12304 102.93748 6926 ft 20 kts 38°
2026-04-28 10:29 25.12415 102.93844 6921 ft 20 kts 38°
2026-04-28 10:30 25.12527 102.93941 6921 ft 20 kts 38°
2026-04-28 10:30 25.12637 102.94036 6921 ft 20 kts 38°
2026-04-28 10:30 25.12744 102.94129 6921 ft 19 kts 38°
2026-04-28 10:30 25.12846 102.94219 6921 ft 19 kts 38°
2026-04-28 10:31 25.12923 102.94279 6927 ft 10 kts 17°
2026-04-28 10:31 25.12969 102.94251 6923 ft 0 kts 306°
2026-04-28 10:32 25.12974 102.94244 6934 ft 3 kts 307°
2026-04-28 10:32 25.12990 102.94221 6925 ft 5 kts 308°
2026-04-28 10:32 25.13019 102.94172 6930 ft 11 kts 290°
2026-04-28 10:32 25.12975 102.94090 6932 ft 15 kts 218°
2026-04-28 10:33 25.12813 102.93948 6921 ft 60 kts 218°
2026-04-28 10:33 25.12316 102.93516 6927 ft 120 kts 218°
2026-04-28 10:33 25.11518 102.92821 6931 ft 170 kts 218°
2026-04-28 10:33 25.10480 102.91924 7063 ft 200 kts 218°
2026-04-28 10:34 25.09429 102.90948 7910 ft 194 kts 227°
2026-04-28 10:34 25.08587 102.89827 8508 ft 188 kts 236°
2026-04-28 10:34 25.07822 102.88668 8959 ft 186 kts 236°
2026-04-28 10:34 25.07092 102.87509 9346 ft 187 kts 236°
2026-04-28 10:35 25.06350 102.86331 9727 ft 187 kts 236°
2026-04-28 10:35 25.05595 102.85157 10052 ft 191 kts 236°
2026-04-28 10:35 25.04782 102.83925 10169 ft 205 kts 236°
2026-04-28 10:35 25.03921 102.82626 10311 ft 215 kts 235°
2026-04-28 10:36 25.03009 102.81265 10397 ft 229 kts 235°
2026-04-28 10:36 25.02029 102.79819 10511 ft 242 kts 231°
2026-04-28 10:36 25.00641 102.78630 10513 ft 269 kts 203°
2026-04-28 10:36 24.98745 102.78359 10675 ft 292 kts 178°
2026-04-28 10:37 24.96689 102.78803 10939 ft 309 kts 167°
2026-04-28 10:37 24.94581 102.79557 11103 ft 328 kts 164°
2026-04-28 10:37 24.92385 102.80488 11212 ft 349 kts 154°
2026-04-28 10:37 24.90475 102.82247 11339 ft 371 kts 133°
2026-04-28 10:38 24.88908 102.84563 11644 ft 382 kts 124°
2026-04-28 10:38 24.87533 102.87096 12114 ft 387 kts 121°
2026-04-28 10:38 24.86238 102.89709 12603 ft 391 kts 120°
2026-04-28 10:38 24.84933 102.92350 13130 ft 394 kts 121°
2026-04-28 10:39 24.83613 102.94960 13644 ft 397 kts 118°
2026-04-28 10:39 24.82759 102.97861 14046 ft 403 kts 99°
2026-04-28 10:39 24.82662 103.00955 14512 ft 406 kts 85°
2026-04-28 10:39 24.83093 103.04031 15006 ft 408 kts 77°
2026-04-28 10:40 24.84044 103.06968 15425 ft 410 kts 57°
2026-04-28 10:40 24.85900 103.09328 15830 ft 409 kts 39°
2026-04-28 10:40 24.88158 103.11233 16310 ft 409 kts 32°
2026-04-28 10:40 24.90570 103.12925 16698 ft 413 kts 29°
2026-04-28 10:41 24.93018 103.14526 17164 ft 416 kts 28°
2026-04-28 10:41 24.95505 103.16178 17620 ft 419 kts 29°
2026-04-28 10:41 24.97980 103.17909 18081 ft 423 kts 31°
2026-04-28 10:41 25.00433 103.19719 18510 ft 427 kts 32°
2026-04-28 10:42 25.02871 103.21591 18905 ft 430 kts 33°
2026-04-28 10:42 25.05324 103.23511 19290 ft 433 kts 33°
2026-04-28 10:42 25.07782 103.25443 19661 ft 435 kts 33°
2026-04-28 10:42 25.10261 103.27379 20058 ft 438 kts 33°
2026-04-28 10:43 25.12757 103.29316 20429 ft 440 kts 33°
2026-04-28 10:43 25.15244 103.31230 20793 ft 443 kts 33°